Weather History for KHAI - February, 2013

Change the Weather History Date:

Saturday, February 23, 2013

  Actual Average Record
Temperature  
Mean Temperature 28 °F -  
Max Temperature 29 °F 39 °F 65 °F (1984)
Min Temperature 25 °F 23 °F -2 °F (1978)
Degree Days  
Heating Degree Days 38    
Moisture  
Dew Point 20 °F    
Average Humidity 75    
Maximum Humidity 86    
Minimum Humidity 63    
Precipitation  
Precipitation 0.00 in - - ()
Sea Level Pressure  
Sea Level Pressure 29.91 in    
Wind  
Wind Speed 8 mph (WSW)    
Max Wind Speed 13 mph    
Max Gust Speed 17 mph    
Visibility 9 miles    
Events Snow    
Averages and records for this station are not official NWS values.
T = Trace of Precipitation, MM = Missing Value Source: NWS Daily Summary

Daily Weather History Graph

Daily Weather History Graph

Search for Another Location

Airport or City:

Trip Planner

Search our weather history database for the weather conditions in past years. The results will help you decide how hot, cold, wet, or windy it might be!

Date:

Astronomy

Feb. 23, 2013 Rise Set
Actual Time 7:26 AM EST 6:25 PM EST
Civil Twilight 6:58 AM EST 6:53 PM EST
Nautical Twilight 6:25 AM EST 7:26 PM EST
Astronomical Twilight 5:53 AM EST 7:58 PM EST
Moon 4:34 PM EST (2/23) 5:49 AM EST (2/23)
Length of Visible Light 11h 55m
Length of Day
10h 59m
Waxing Gibbous, 95% of the Moon is Illuminated
Feb 23
Waxing Gibbous
Feb 25
Full
Mar 4
Last Quarter
Mar 11
New
Mar 19
First Quarter

Hourly Weather History & Observations

Time (EST) Temp. Windchill Dew Point Humidity Pressure Visibility Wind Dir Wind Speed Gust Speed Precip Events Conditions
12:15 AM 30.2 °F 20.8 °F 21.9 °F 71% 29.89 in 10.0 mi SW 11.5 mph 16.1 mph N/A   Overcast
12:55 AM 29.7 °F 23.7 °F 21.7 °F 72% 29.89 in 10.0 mi WSW 5.8 mph - N/A   Overcast
1:15 AM 29.3 °F 22.3 °F 21.9 °F 74% 29.90 in 10.0 mi SW 6.9 mph - N/A   Overcast
1:34 AM 29.1 °F 19.4 °F 21.9 °F 74% 29.90 in 10.0 mi SW 11.5 mph - N/A   Overcast
1:55 AM 29.1 °F 20.6 °F 22.1 °F 75% 29.90 in 10.0 mi SW 9.2 mph - N/A   Overcast
2:14 AM 28.9 °F 20.4 °F 22.1 °F 76% 29.89 in 10.0 mi SW 9.2 mph - N/A   Overcast
2:34 AM 28.4 °F 19.7 °F 22.1 °F 77% 29.89 in 10.0 mi SW 9.2 mph - N/A   Overcast
2:55 AM 28.4 °F 20.4 °F 22.1 °F 77% 29.89 in 10.0 mi SW 8.1 mph - N/A   Overcast
3:14 AM 28.2 °F 17.7 °F 22.1 °F 78% 29.89 in 10.0 mi SW 12.7 mph 17.3 mph N/A   Overcast
3:35 AM 28.0 °F 20.0 °F 21.9 °F 78% 29.89 in 10.0 mi SW 8.1 mph - N/A   Overcast
3:55 AM 28.0 °F 19.3 °F 22.1 °F 78% 29.88 in 10.0 mi SW 9.2 mph - N/A   Overcast
4:14 AM 27.9 °F 20.6 °F 22.1 °F 79% 29.89 in 10.0 mi WSW 6.9 mph - N/A Snow Light Snow
4:35 AM 27.5 °F 19.3 °F 21.7 °F 79% 29.88 in 10.0 mi SW 8.1 mph - N/A   Overcast
4:55 AM 27.5 °F 19.3 °F 21.7 °F 79% 29.88 in 10.0 mi SW 8.1 mph - N/A   Overcast
5:14 AM 27.5 °F 20.2 °F 21.6 °F 78% 29.89 in 10.0 mi WSW 6.9 mph - N/A   Overcast
5:35 AM 27.5 °F 20.2 °F 21.6 °F 78% 29.89 in 10.0 mi SW 6.9 mph - N/A   Overcast
5:55 AM 27.3 °F 19.1 °F 21.7 °F 80% 29.89 in 10.0 mi SW 8.1 mph - N/A   Overcast
6:14 AM 27.1 °F 18.9 °F 21.6 °F 80% 29.89 in 10.0 mi SW 8.1 mph - N/A   Overcast
6:35 AM 27.1 °F 18.9 °F 21.6 °F 80% 29.90 in 10.0 mi WSW 8.1 mph - N/A   Overcast
6:54 AM 27.1 °F 17.5 °F 21.4 °F 79% 29.90 in 10.0 mi SW 10.4 mph - N/A   Overcast
7:14 AM 27.0 °F 18.7 °F 21.2 °F 79% 29.91 in 10.0 mi WSW 8.1 mph - N/A   Overcast
7:35 AM 26.6 °F 17.5 °F 20.8 °F 79% 29.91 in 10.0 mi SW 9.2 mph - N/A   Overcast
7:54 AM 26.6 °F 19.1 °F 20.5 °F 78% 29.92 in 10.0 mi WSW 6.9 mph - N/A   Overcast
8:15 AM 26.6 °F 20.0 °F 20.3 °F 77% 29.92 in 10.0 mi SW 5.8 mph - N/A   Overcast
8:35 AM 26.6 °F 18.2 °F 20.3 °F 77% 29.92 in 10.0 mi SW 8.1 mph - N/A   Overcast
8:54 AM 26.6 °F 21.2 °F 20.5 °F 78% 29.92 in 10.0 mi WSW 4.6 mph - N/A   Overcast
9:15 AM 26.8 °F 17.7 °F 20.3 °F 77% 29.92 in 10.0 mi WSW 9.2 mph - N/A   Overcast
9:35 AM 26.6 °F 18.2 °F 19.8 °F 75% 29.91 in 10.0 mi WSW 8.1 mph 17.3 mph N/A   Overcast
9:54 AM 26.6 °F 17.5 °F 19.6 °F 75% 29.91 in 10.0 mi WSW 9.2 mph - N/A   Overcast
10:15 AM 27.0 °F 18.0 °F 19.2 °F 73% 29.91 in 10.0 mi WSW 9.2 mph 17.3 mph N/A   Overcast
11:15 AM 28.0 °F 20.8 °F 17.8 °F 65% 29.91 in 10.0 mi WSW 6.9 mph - N/A   Overcast
11:34 AM 28.6 °F 20.7 °F 17.6 °F 64% 29.91 in 10.0 mi WSW 8.1 mph - N/A   Overcast
12:15 PM 28.0 °F 18.6 °F 17.1 °F 63% 29.92 in 10.0 mi SW 10.4 mph 16.1 mph N/A   Overcast
12:34 PM 27.9 °F 18.4 °F 16.7 °F 63% 29.92 in 10.0 mi SW 10.4 mph - N/A   Overcast
12:55 PM 28.0 °F 19.3 °F 17.1 °F 63% 29.91 in 10.0 mi WSW 9.2 mph - N/A   Overcast
1:15 PM 28.2 °F 21.0 °F 17.2 °F 63% 29.90 in 10.0 mi SW 6.9 mph - N/A   Overcast
1:34 PM 28.0 °F 18.6 °F 17.2 °F 64% 29.89 in 10.0 mi SW 10.4 mph - N/A   Overcast
1:55 PM 28.8 °F 19.5 °F 17.6 °F 63% 29.90 in 10.0 mi SW 10.4 mph - N/A   Overcast
2:15 PM 28.2 °F 20.2 °F 17.2 °F 63% 29.89 in 10.0 mi WSW 8.1 mph - N/A   Overcast
2:34 PM 28.0 °F 19.3 °F 17.4 °F 64% 29.88 in 10.0 mi WSW 9.2 mph - N/A   Overcast
2:55 PM 28.4 °F 19.1 °F 17.6 °F 64% 29.89 in 10.0 mi SW 10.4 mph - N/A   Overcast
3:15 PM 28.4 °F 19.1 °F 17.6 °F 64% 29.89 in 10.0 mi WSW 10.4 mph - N/A   Overcast
3:34 PM 28.2 °F 18.9 °F 18.1 °F 66% 29.88 in 10.0 mi SW 10.4 mph - N/A   Overcast
3:55 PM 28.2 °F 21.0 °F 18.1 °F 66% 29.89 in 10.0 mi WSW 6.9 mph - N/A   Overcast
4:14 PM 28.4 °F 21.2 °F 17.6 °F 64% 29.89 in 10.0 mi WSW 6.9 mph - N/A   Overcast
4:35 PM 28.4 °F 22.2 °F 18.1 °F 65% 29.90 in 10.0 mi WSW 5.8 mph - N/A   Overcast
4:55 PM 28.2 °F 22.0 °F 18.5 °F 67% 29.90 in 7.0 mi WSW 5.8 mph - N/A Snow Light Snow
5:14 PM 27.5 °F 19.3 °F 19.9 °F 73% 29.90 in 3.0 mi West 8.1 mph - N/A Snow Light Snow
5:35 PM 27.1 °F 21.8 °F 21.4 °F 79% 29.90 in 1.5 mi West 4.6 mph - N/A Snow Light Snow
5:55 PM 26.6 °F 20.0 °F 21.7 °F 82% 29.91 in 1.2 mi West 5.8 mph - N/A Snow Light Snow
6:14 PM 26.4 °F 19.8 °F 21.9 °F 83% 29.91 in 1.0 mi West 5.8 mph - N/A Snow Light Snow
6:35 PM 25.9 °F 17.4 °F 21.9 °F 85% 29.92 in 2.0 mi West 8.1 mph - N/A Snow Light Snow
6:55 PM 25.7 °F 21.5 °F 22.1 °F 86% 29.92 in 2.0 mi West 3.5 mph - N/A Snow Light Snow
7:14 PM 25.7 °F 20.1 °F 22.1 °F 86% 29.93 in 2.5 mi West 4.6 mph - N/A Snow Light Snow
7:35 PM 25.2 °F 18.3 °F 21.2 °F 85% 29.93 in 5.0 mi West 5.8 mph - N/A Snow Light Snow
7:55 PM 25.0 °F 18.1 °F 20.7 °F 84% 29.94 in 7.0 mi West 5.8 mph - N/A Snow Light Snow
8:14 PM 25.2 °F 20.9 °F 20.3 °F 82% 29.94 in 10.0 mi West 3.5 mph - N/A Snow Light Snow
8:35 PM 25.2 °F 20.9 °F 20.3 °F 82% 29.94 in 10.0 mi West 3.5 mph - N/A   Overcast
8:54 PM 25.2 °F 20.9 °F 20.1 °F 81% 29.94 in 10.0 mi WSW 3.5 mph - N/A Snow Light Snow
9:15 PM 25.2 °F 20.9 °F 19.9 °F 81% 29.94 in 10.0 mi West 3.5 mph - N/A   Overcast
9:35 PM 25.2 °F 19.5 °F 19.6 °F 79% 29.93 in 10.0 mi West 4.6 mph - N/A   Overcast
9:54 PM 25.3 °F 18.5 °F 19.4 °F 78% 29.93 in 10.0 mi WSW 5.8 mph - N/A   Overcast
10:15 PM 25.3 °F 19.7 °F 19.2 °F 78% 29.93 in 10.0 mi West 4.6 mph - N/A   Overcast
10:34 PM 25.3 °F 17.6 °F 19.2 °F 78% 29.93 in 10.0 mi WSW 6.9 mph - N/A   Overcast
10:55 PM 25.3 °F 16.7 °F 19.2 °F 78% 29.92 in 10.0 mi SW 8.1 mph - N/A   Overcast
11:15 PM 25.3 °F 19.7 °F 19.4 °F 78% 29.92 in 10.0 mi SW 4.6 mph - N/A   Overcast
11:34 PM 25.2 °F 17.3 °F 19.4 °F 79% 29.92 in 10.0 mi SW 6.9 mph - N/A   Overcast
11:55 PM 25.2 °F 19.5 °F 19.4 °F 79% 29.91 in 10.0 mi SW 4.6 mph - N/A   Overcast